W7KKE-3 Weather Reports


Display with metric or nautical units.
time (UTC)temp
F
wind
direction
speed
MPH
gust
MPH
rain 1hr
in
rain 24hr
in
rain mn
in
humidity
%
barometer
mb
20170222060412 44 21 0.0 1.0 0.02 0.52 0.52 97 1023.5
20170222055913 44 88 1.0 5.0 0.00 0.50 0.50 97 1023.5
20170222055412 44 310 2.0 5.0 0.00 0.50 0.50 97 1023.4
20170222054912 44 35 3.0 5.0 0.00 0.50 0.50 97 1023.3
20170222054412 44 88 1.0 4.0 0.00 0.50 0.50 97 1023.2
20170222053912 44 85 2.0 4.0 0.00 0.50 0.50 97 1023.1
20170222053412 44 289 5.0 13.0 0.00 0.50 0.50 97 1023.2
20170222052913 44 337 2.0 13.0 0.00 0.50 0.50 97 1023.1
20170222052412 44 301 6.0 13.0 0.00 0.50 0.50 97 1023.1
20170222051912 44 92 0.0 7.0 0.00 0.50 0.50 97 1023.1
20170222051412 44 82 3.0 7.0 0.00 0.50 0.50 97 1022.9
20170222050912 44 74 4.0 7.0 0.00 0.50 0.50 97 1022.8
20170222050412 44 106 3.0 6.0 0.00 0.50 0.50 97 1022.8
20170222045913 44 93 3.0 6.0 0.00 0.50 0.50 97 1022.7
20170222043912 44 79 4.0 6.0 0.00 0.50 0.50 96 1022.5
20170222043412 44 70 3.0 5.0 0.00 0.50 0.50 96 1022.5
20170222042913 44 93 3.0 6.0 0.00 0.50 0.50 96 1022.4
20170222042412 44 81 4.0 6.0 0.00 0.50 0.50 96 1022.3
20170222041912 44 81 4.0 6.0 0.00 0.50 0.50 96 1022.3
20170222041412 45 71 2.0 4.0 0.00 0.50 0.50 96 1022.3
20170222040912 45 93 3.0 4.0 0.00 0.50 0.50 95 1022.2
20170222040412 45 85 1.0 4.0 0.00 0.50 0.50 95 1022.2
20170222035913 45 74 2.0 4.0 0.00 0.50 0.50 95 1022.1
20170222035412 45 84 2.0 4.0 0.00 0.50 0.50 94 1022.1
20170222034912 46 345 2.0 15.0 0.00 0.50 0.50 93 1022.2
20170222034412 46 334 2.0 15.0 0.00 0.50 0.50 92 1022.2
20170222033912 46 280 5.0 15.0 0.00 0.50 0.50 92 1022.2
20170222033412 46 345 7.0 13.0 0.00 0.50 0.50 92 1022.1
20170222032913 46 315 7.0 11.0 0.00 0.50 0.50 93 1022.1
20170222032412 46 330 7.0 11.0 0.00 0.50 0.50 92 1022.0
20170222030412 46 312 7.0 13.0 0.00 0.50 0.50 92 1021.9
20170222025913 47 316 8.0 13.0 0.00 0.50 0.50 92 1021.7
20170222025412 47 347 6.0 11.0 0.00 0.50 0.50 93 1021.8
20170222024912 47 275 7.0 11.0 0.00 0.50 0.50 92 1021.7
20170222024412 47 292 5.0 11.0 0.00 0.50 0.50 92 1021.7
20170222023912 46 277 5.0 11.0 0.00 0.50 0.50 92 1021.6
20170222023412 47 287 8.0 11.0 0.00 0.50 0.50 92 1021.5
20170222022913 47 298 7.0 11.0 0.00 0.50 0.50 92 1021.4
20170222022412 46 338 4.0 11.0 0.00 0.50 0.50 92 1021.3
20170222021913 47 329 7.0 11.0 0.00 0.50 0.50 91 1021.2
20170222021412 47 317 7.0 11.0 0.00 0.50 0.50 92 1021.1
20170222020912 47 327 5.0 7.0 0.00 0.50 0.50 92 1021.1
20170222014912 47 280 6.0 12.0 0.00 0.51 0.50 91 1020.9
20170222014414 47 291 6.0 12.0 0.00 0.51 0.50 91 1020.8
20170222013912 47 275 7.0 12.0 0.00 0.51 0.50 91 1020.8
20170222013412 47 305 8.0 12.0 0.00 0.51 0.50 91 1020.7
20170222012913 47 319 8.0 14.0 0.00 0.51 0.50 91 1020.6
20170222012412 47 312 9.0 14.0 0.00 0.51 0.50 90 1020.6
20170222011912 48 309 8.0 14.0 0.00 0.51 0.50 90 1020.5
20170222011412 47 278 8.0 14.0 0.00 0.51 0.50 90 1020.5
20170222010912 47 310 7.0 12.0 0.00 0.51 0.50 90 1020.3
20170222010412 48 306 9.0 13.0 0.00 0.51 0.50 90 1020.3
20170222005913 48 317 9.0 13.0 0.00 0.54 0.50 90 1020.3
20170222005412 48 302 9.0 13.0 0.00 0.54 0.50 91 1020.2
20170222004912 48 302 7.0 12.0 0.00 0.54 0.50 91 1020.1
20170222004412 48 277 9.0 15.0 0.00 0.54 0.50 90 1020.1
20170222003912 48 329 8.0 15.0 0.00 0.54 0.50 91 1020.0
20170222003412 48 323 10.0 15.0 0.00 0.54 0.50 91 1019.9
20170222002913 48 322 6.0 14.0 0.00 0.54 0.50 91 1019.9
20170222002412 48 203 7.0 13.0 0.00 0.54 0.50 92 1019.8
20170222001912 48 281 7.0 13.0 0.00 0.54 0.50 92 1019.7
20170222001412 49 296 7.0 14.0 0.00 0.54 0.50 92 1019.7
20170222000912 49 330 6.0 14.0 0.00 0.54 0.50 92 1019.6
20170222000412 49 295 8.0 14.0 0.00 0.54 0.50 92 1019.6
20170221235913 49 280 8.0 13.0 0.00 0.55 0.50 93 1019.5
20170221235412 49 310 8.0 13.0 0.00 0.55 0.50 92 1019.4
20170221234912 49 292 8.0 13.0 0.00 0.55 0.50 92 1019.4
20170221234412 49 312 8.0 13.0 0.00 0.55 0.50 92 1019.3
20170221233912 49 327 8.0 15.0 0.00 0.55 0.50 91 1019.2
20170221233412 50 324 9.0 15.0 0.00 0.55 0.50 91 1019.2
20170221232913 50 315 10.0 15.0 0.00 0.55 0.50 92 1019.1
20170221232412 50 310 7.0 14.0 0.00 0.55 0.50 92 1019.0
20170221231915 50 298 9.0 15.0 0.00 0.55 0.50 93 1018.9
20170221231412 50 315 7.0 15.0 0.00 0.55 0.50 93 1018.8
20170221230912 49 312 10.0 15.0 0.00 0.55 0.50 94 1018.8
20170221230412 49 301 9.0 15.0 0.00 0.55 0.50 94 1018.7
20170221225913 49 316 9.0 18.0 0.00 0.56 0.50 94 1018.7
20170221225412 49 306 11.0 18.0 0.00 0.56 0.50 94 1018.6
20170221224912 49 316 9.0 18.0 0.00 0.56 0.50 95 1018.5
20170221224412 49 303 10.0 17.0 0.00 0.56 0.50 95 1018.5
20170221223912 49 280 8.0 17.0 0.00 0.56 0.50 95 1018.5
20170221223412 49 295 10.0 17.0 0.00 0.56 0.50 96 1018.4
20170221222913 49 312 12.0 17.0 0.00 0.56 0.50 95 1018.4
20170221220912 49 308 7.0 15.0 0.00 0.56 0.50 96 1018.2
20170221220412 48 306 9.0 15.0 0.00 0.56 0.50 95 1018.2
20170221215912 48 282 8.0 19.0 0.00 0.59 0.50 96 1018.1
20170221215412 48 322 10.0 19.0 0.00 0.59 0.50 95 1018.0
20170221214912 49 315 13.0 19.0 0.00 0.59 0.50 95 1017.9
20170221214412 49 285 9.0 17.0 0.00 0.59 0.50 96 1017.9
20170221213912 49 331 10.0 17.0 0.00 0.59 0.50 96 1017.7
20170221213412 49 309 11.0 17.0 0.00 0.59 0.50 96 1017.6
20170221212912 49 298 11.0 17.0 0.00 0.59 0.50 96 1017.6
20170221212412 49 284 9.0 16.0 0.00 0.59 0.50 97 1017.5
20170221211912 49 317 11.0 16.0 0.00 0.59 0.50 97 1017.4
20170221211412 48 316 8.0 16.0 0.00 0.59 0.50 97 1017.3
20170221210912 48 298 10.0 15.0 0.01 0.59 0.50 97 1017.3
20170221210412 48 302 9.0 18.0 0.01 0.59 0.50 97 1017.2
20170221205912 48 294 8.0 18.0 0.01 0.63 0.50 97 1017.2
20170221205411 48 330 8.0 18.0 0.01 0.63 0.50 97 1017.1
20170221204911 48 322 7.0 18.0 0.01 0.63 0.50 97 1016.9
20170221204412 48 330 9.0 18.0 0.01 0.63 0.50 97 1016.9
20170221203913 48 294 10.0 18.0 0.01 0.63 0.50 97 1016.9
20170221203411 48 292 9.0 18.0 0.01 0.63 0.50 97 1016.9
20170221202912 48 306 11.0 17.0 0.01 0.63 0.50 98 1016.9
20170221202411 48 324 8.0 20.0 0.01 0.63 0.50 98 1016.8
20170221201911 48 327 10.0 20.0 0.01 0.63 0.50 98 1016.8
20170221201412 48 312 12.0 20.0 0.01 0.63 0.50 98 1016.7
20170221200911 48 305 12.0 19.0 0.00 0.63 0.49 99 1016.7
20170221200412 48 294 10.0 19.0 0.00 0.63 0.49 99 1016.7
20170221195912 48 313 9.0 19.0 0.00 0.69 0.49 99 1016.6
20170221195412 48 340 11.0 19.0 0.00 0.69 0.49 99 1016.5
20170221194911 48 299 10.0 19.0 0.00 0.69 0.49 99 1016.5
20170221194412 48 312 9.0 17.0 0.00 0.69 0.49 99 1016.4
20170221193912 48 309 12.0 17.0 0.00 0.69 0.49 100 1016.4
20170221193411 48 324 11.0 17.0 0.00 0.69 0.49 100 1016.3
20170221191412 47 291 12.0 18.0 0.00 0.69 0.49 100 1015.8
20170221190911 47 322 6.0 14.0 0.01 0.69 0.49 100 1015.7
20170221190411 47 296 10.0 14.0 0.01 0.69 0.49 100 1015.6
20170221185912 47 312 7.0 14.0 0.01 0.69 0.49 100 1015.5
20170221185412 47 301 7.0 17.0 0.01 0.69 0.49 100 1015.5
20170221184912 47 352 9.0 17.0 0.02 0.69 0.49 100 1015.4
20170221184412 47 294 7.0 17.0 0.02 0.69 0.49 100 1015.2
20170221183911 47 340 7.0 15.0 0.02 0.69 0.49 100 1015.0
20170221183411 47 320 5.0 12.0 0.02 0.69 0.49 100 1015.0
20170221182912 46 319 8.0 12.0 0.03 0.69 0.49 100 1014.9
20170221182411 46 337 6.0 19.0 0.03 0.69 0.49 100 1014.7
20170221181911 47 316 6.0 19.0 0.03 0.69 0.49 100 1014.5
20170221181412 47 329 10.0 19.0 0.03 0.69 0.49 100 1014.5
20170221180911 47 313 8.0 16.0 0.03 0.69 0.49 100 1014.4
20170221180411 47 308 8.0 16.0 0.03 0.69 0.48 100 1014.3
20170221175912 47 322 3.0 15.0 0.05 0.67 0.48 100 1014.2
20170221175411 47 341 3.0 15.0 0.05 0.67 0.48 100 1014.1
20170221173411 47 338 3.0 11.0 0.12 0.67 0.47 100 1013.6
20170221172912 47 289 1.0 11.0 0.13 0.67 0.46 100 1013.6
20170221172411 46 329 2.0 11.0 0.13 0.67 0.46 100 1013.4
20170221171912 46 15 5.0 9.0 0.15 0.67 0.46 100 1013.3
20170221171412 47 319 2.0 13.0 0.15 0.67 0.46 100 1013.2
20170221170912 47 289 4.0 13.0 0.18 0.67 0.46 100 1013.1
20170221170413 46 303 5.0 13.0 0.18 0.67 0.45 100 1013.0
20170221165912 47 313 5.0 7.0 0.19 0.54 0.45 100 1012.9
20170221165411 47 99 4.0 6.0 0.19 0.54 0.43 100 1012.9
20170221163911 47 245 3.0 7.0 0.14 0.54 0.36 100 1012.4
20170221163411 47 268 2.0 5.0 0.14 0.54 0.35 100 1012.3
20170221162912 47 295 4.0 7.0 0.13 0.54 0.34 100 1012.1
20170221162411 47 313 0.0 7.0 0.13 0.54 0.33 100 1011.8
20170221160411 47 169 1.0 3.0 0.10 0.54 0.27 100 1011.3
20170221155912 47 99 0.0 3.0 0.08 0.55 0.26 100 1011.3
20170221155411 46 105 2.0 3.0 0.08 0.55 0.24 100 1011.1
20170221154912 46 60 1.0 3.0 0.07 0.55 0.23 100 1011.0
20170221154412 47 63 2.0 3.0 0.07 0.55 0.22 100 1010.8
20170221153911 46 68 1.0 3.0 0.06 0.55 0.21 100 1010.6
20170221153411 46 88 2.0 3.0 0.06 0.55 0.21 100 1010.5
20170221152912 46 71 2.0 3.0 0.06 0.55 0.21 100 1010.3
20170221152411 46 74 2.0 2.0 0.06 0.55 0.20 100 1010.2
20170221151911 47 72 1.0 2.0 0.04 0.55 0.19 100 1010.0
20170221145912 46 81 2.0 2.0 0.03 0.58 0.16 100 1009.6
20170221145411 47 72 2.0 2.0 0.03 0.58 0.16 100 1009.5
20170221144912 46 0 0.0 0.0 0.02 0.58 0.15 100 1009.3
20170221144412 46 0 0.0 0.0 0.02 0.58 0.15 100 1009.2
20170221143911 46 0 0.0 0.0 0.03 0.58 0.15 100 1009.0
20170221143411 46 0 0.0 0.0 0.03 0.58 0.15 100 1008.9
20170221142912 46 0 0.0 0.0 0.02 0.58 0.14 100 1008.7
20170221142411 47 0 0.0 0.0 0.02 0.58 0.14 100 1008.6
20170221141911 46 0 0.0 0.0 0.03 0.58 0.14 100 1008.5
20170221141412 47 0 0.0 0.0 0.03 0.58 0.14 100 1008.3
20170221140911 47 0 0.0 0.0 0.02 0.58 0.13 100 1008.2
20170221140411 46 0 0.0 1.0 0.02 0.58 0.13 100 1008.2
20170221135912 47 0 0.0 1.0 0.02 0.59 0.13 100 1008.2
20170221135411 46 336 0.0 1.0 0.02 0.59 0.13 100 1008.0
20170221134911 47 0 0.0 0.0 0.03 0.59 0.13 100 1007.9
20170221134411 46 0 0.0 0.0 0.03 0.59 0.13 100 1007.8
20170221133911 46 0 0.0 0.0 0.02 0.59 0.13 100 1007.7
20170221133411 46 0 0.0 0.0 0.02 0.59 0.12 100 1007.6
20170221132912 46 0 0.0 1.0 0.02 0.59 0.12 100 1007.6
20170221132413 46 0 0.0 1.0 0.02 0.59 0.12 100 1007.4
20170221131911 46 0 0.0 1.0 0.02 0.59 0.11 100 1007.3
20170221131412 46 46 0.0 1.0 0.02 0.59 0.11 100 1007.2
20170221130911 46 65 0.0 2.0 0.02 0.59 0.11 100 1007.1
20170221130411 46 71 1.0 2.0 0.02 0.59 0.11 100 1006.9
20170221125912 46 82 1.0 2.0 0.02 0.62 0.11 100 1006.8
20170221125411 46 68 1.0 2.0 0.02 0.62 0.11 100 1006.8
20170221124911 46 0 0.0 0.0 0.02 0.62 0.11 100 1006.7
20170221124411 46 0 0.0 0.0 0.02 0.62 0.10 100 1006.7
20170221122411 46 0 0.0 0.0 0.03 0.62 0.10 100 1006.4
20170221121911 46 0 0.0 0.0 0.02 0.62 0.10 100 1006.3
20170221121411 46 0 0.0 0.0 0.02 0.62 0.09 100 1006.3
20170221120911 47 0 0.0 0.0 0.02 0.62 0.09 100 1006.1
20170221120411 47 0 0.0 0.0 0.02 0.62 0.09 100 1006.2
20170221115912 47 0 0.0 0.0 0.03 0.72 0.09 100 1006.1
20170221115411 46 0 0.0 0.0 0.03 0.72 0.09 100 1006.0
20170221114912 46 0 0.0 0.0 0.03 0.72 0.08 100 1006.1
20170221114411 46 0 0.0 1.0 0.03 0.72 0.08 100 1006.0
20170221113911 46 0 0.0 1.0 0.04 0.72 0.08 100 1006.0
20170221113411 47 70 0.0 1.0 0.04 0.72 0.08 100 1005.9
20170221112912 47 71 0.0 1.0 0.03 0.72 0.08 100 1005.8
20170221112411 47 88 1.0 2.0 0.03 0.72 0.08 100 1005.7
20170221111911 46 79 1.0 2.0 0.03 0.72 0.07 100 1005.7
20170221111412 46 78 0.0 2.0 0.03 0.72 0.07 100 1005.7
20170221110911 46 0 0.0 0.0 0.04 0.72 0.07 100 1005.7
20170221110411 46 0 0.0 0.0 0.04 0.72 0.07 100 1005.6
20170221105912 46 0 0.0 0.0 0.03 0.74 0.07 100 1005.6
20170221105411 46 0 0.0 0.0 0.03 0.74 0.06 100 1005.6
20170221104911 46 0 0.0 2.0 0.02 0.74 0.05 100 1005.6
20170221104411 46 61 0.0 2.0 0.02 0.74 0.05 100 1005.6
20170221103911 46 47 0.0 2.0 0.01 0.74 0.05 100 1005.6
20170221103411 46 72 1.0 2.0 0.01 0.74 0.04 100 1005.5
20170221102912 46 64 0.0 3.0 0.02 0.74 0.04 100 1005.5
20170221102411 46 117 0.0 3.0 0.02 0.74 0.04 100 1005.5
20170221101911 46 86 1.0 3.0 0.02 0.74 0.04 100 1005.4
20170221101412 46 82 1.0 2.0 0.02 0.74 0.04 100 1005.4
20170221100911 46 79 1.0 1.0 0.01 0.74 0.04 100 1005.4
20170221100411 46 82 0.0 1.0 0.01 0.74 0.03 100 1005.4
20170221095912 46 0 0.0 1.0 0.01 0.79 0.03 100 1005.3
20170221095411 46 78 0.0 1.0 0.01 0.79 0.03 100 1005.3
20170221094911 46 109 0.0 2.0 0.02 0.79 0.03 100 1005.3
20170221094412 46 354 0.0 2.0 0.02 0.79 0.03 100 1005.3
20170221093911 46 93 0.0 2.0 0.02 0.79 0.03 100 1005.2
20170221093411 46 96 0.0 1.0 0.02 0.79 0.03 100 1005.2
20170221092912 46 91 0.0 1.0 0.01 0.79 0.03 100 1005.2
20170221092411 46 84 0.0 1.0 0.01 0.79 0.02 100 1005.2
20170221091911 46 109 0.0 1.0 0.01 0.79 0.02 100 1005.2
20170221091413 46 0 0.0 1.0 0.01 0.79 0.02 100 1005.2
20170221090911 46 61 0.0 1.0 0.01 0.79 0.02 100 1005.2
20170221090411 46 95 0.0 1.0 0.01 0.79 0.02 100 1005.1
20170221085912 46 98 0.0 1.0 0.01 0.79 0.02 100 1005.2
20170221085411 46 70 0.0 1.0 0.01 0.79 0.02 100 1005.1
20170221084911 46 0 0.0 0.0 0.00 0.79 0.02 100 1005.2
20170221084411 46 0 0.0 0.0 0.00 0.79 0.01 100 1005.2
20170221083911 46 89 0.0 1.0 0.00 0.79 0.01 100 1005.2
20170221083411 46 0 0.0 1.0 0.00 0.79 0.01 100 1005.2
20170221082912 46 0 0.0 1.0 0.00 0.79 0.01 100 1005.2
20170221082411 46 65 0.0 1.0 0.00 0.79 0.01 100 1005.2
20170221081911 46 78 1.0 2.0 0.00 0.79 0.01 100 1005.2
20170221081411 46 63 1.0 2.0 0.00 0.79 0.01 100 1005.1
20170221080911 46 72 2.0 2.0 0.00 0.79 0.01 100 1005.1
20170221080411 46 0 0.0 0.0 0.00 0.79 0.01 100 1005.1
20170221075912 46 0 0.0 0.0 0.00 0.84 0.00 100 1005.1
20170221075411 46 0 0.0 1.0 0.00 0.84 0.79 100 1005.0
20170221074911 46 0 0.0 1.0 0.00 0.84 0.79 100 1005.1
20170221074411 46 0 0.0 1.0 0.00 0.84 0.79 100 1005.0
20170221073911 46 148 0.0 1.0 0.00 0.84 0.79 100 1005.0
20170221073411 46 165 0.0 2.0 0.00 0.84 0.79 100 1005.0
20170221072912 46 166 0.0 2.0 0.00 0.84 0.79 100 1004.8
20170221072411 46 177 1.0 2.0 0.00 0.84 0.79 100 1004.8
20170221071911 46 193 0.0 2.0 0.00 0.84 0.79 100 1004.7
20170221071411 46 191 0.0 1.0 0.00 0.84 0.79 100 1004.6
20170221070911 46 11 0.0 1.0 0.00 0.84 0.79 100 1004.5
20170221070411 46 14 0.0 1.0 0.00 0.84 0.79 100 1004.5
20170221065912 46 60 0.0 1.0 0.00 0.85 0.79 100 1004.4
20170221065411 46 0 0.0 0.0 0.00 0.85 0.79 100 1004.4
20170221064911 46 0 0.0 0.0 0.00 0.85 0.79 100 1004.4
20170221064411 46 91 0.0 0.0 0.00 0.85 0.79 100 1004.5
20170221063911 47 0 0.0 0.0 0.00 0.85 0.79 100 1004.5
20170221063411 46 0 0.0 0.0 0.00 0.85 0.79 100 1004.6
20170221062912 46 0 0.0 1.0 0.00 0.85 0.79 100 1004.7
20170221062411 46 0 0.0 1.0 0.00 0.85 0.79 100 1004.7
20170221061911 47 84 0.0 1.0 0.00 0.85 0.79 100 1004.7
20170221061411 47 121 0.0 1.0 0.00 0.85 0.79 100 1004.8
20170221060911 47 36 0.0 1.0 0.00 0.85 0.79 100 1004.7